Time,TemperatureF,DewpointF,PressureIn,WindDirection,WindDirectionDegrees,WindSpeedMPH,WindSpeedGustMPH,Humidity,HourlyPrecipIn,Conditions,Clouds,dailyrainin,SoftwareType,DateUTC
2013-01-28 00:07:00,71.9,63.0,30.28,NNE,23,1.0,7.0,74,0.00,,,0.00,weatherlink.com 1.10,2013-01-28 05:07:00,
2013-01-28 00:22:00,71.8,63.0,30.28,East,82,2.0,7.0,74,0.00,,,0.00,weatherlink.com 1.10,2013-01-28 05:22:00,
2013-01-28 00:37:00,71.9,63.0,30.28,NE,47,2.0,6.0,74,0.00,,,0.00,weatherlink.com 1.10,2013-01-28 05:37:00,
2013-01-28 00:52:00,72.0,63.0,30.28,ENE,65,2.0,6.0,74,0.00,,,0.00,weatherlink.com 1.10,2013-01-28 05:52:00,
2013-01-28 01:07:00,72.1,64.0,30.28,WNW,285,2.0,6.0,75,0.00,,,0.00,weatherlink.com 1.10,2013-01-28 06:07:00,
2013-01-28 01:22:00,72.1,64.0,30.28,ENE,74,4.0,8.0,75,0.00,,,0.00,weatherlink.com 1.10,2013-01-28 06:22:00,
2013-01-28 01:37:00,72.0,64.0,30.27,ENE,70,3.0,8.0,75,0.00,,,0.00,weatherlink.com 1.10,2013-01-28 06:37:00,
2013-01-28 01:52:00,71.8,64.0,30.27,ENE,61,3.0,8.0,75,0.00,,,0.00,weatherlink.com 1.10,2013-01-28 06:52:00,
2013-01-28 02:07:00,71.8,63.0,30.27,NE,49,4.0,7.0,74,0.00,,,0.00,weatherlink.com 1.10,2013-01-28 07:07:00,
2013-01-28 02:22:00,71.7,63.0,30.27,NE,49,3.0,7.0,74,0.00,,,0.00,weatherlink.com 1.10,2013-01-28 07:22:00,
2013-01-28 02:37:00,71.7,63.0,30.27,ENE,68,2.0,6.0,75,0.00,,,0.00,weatherlink.com 1.10,2013-01-28 07:37:00,
2013-01-28 02:52:00,71.8,64.0,30.27,ENE,67,2.0,6.0,75,0.00,,,0.00,weatherlink.com 1.10,2013-01-28 07:52:00,
2013-01-28 03:07:00,71.8,63.0,30.27,NE,51,4.0,7.0,74,0.00,,,0.00,weatherlink.com 1.10,2013-01-28 08:07:00,
2013-01-28 03:22:00,71.6,63.0,30.27,NE,56,5.0,8.0,75,0.00,,,0.00,weatherlink.com 1.10,2013-01-28 08:22:00,
2013-01-28 03:37:00,71.7,63.0,30.27,NE,56,3.0,5.0,75,0.00,,,0.00,weatherlink.com 1.10,2013-01-28 08:37:00,
2013-01-28 03:52:00,71.6,63.0,30.27,ESE,102,5.0,8.0,75,0.00,,,0.00,weatherlink.com 1.10,2013-01-28 08:52:00,
2013-01-28 04:07:00,71.7,64.0,30.26,NE,44,1.0,6.0,76,0.00,,,0.00,weatherlink.com 1.10,2013-01-28 09:07:00,
2013-01-28 04:22:00,71.7,64.0,30.26,NE,51,2.0,6.0,77,0.00,,,0.00,weatherlink.com 1.10,2013-01-28 09:22:00,
2013-01-28 04:37:00,71.5,64.0,30.26,ENE,70,2.0,9.0,76,0.00,,,0.00,weatherlink.com 1.10,2013-01-28 09:37:00,
2013-01-28 04:52:00,71.5,64.0,30.27,ENE,63,5.0,8.0,77,0.00,,,0.00,weatherlink.com 1.10,2013-01-28 09:52:00,
2013-01-28 05:07:00,71.3,63.0,30.26,NE,51,4.0,6.0,74,0.00,,,0.00,weatherlink.com 1.10,2013-01-28 10:07:00,
2013-01-28 05:22:00,71.3,63.0,30.27,ENE,60,2.0,6.0,76,0.00,,,0.00,weatherlink.com 1.10,2013-01-28 10:22:00,
2013-01-28 05:37:00,71.4,64.0,30.27,NE,54,3.0,6.0,77,0.00,,,0.00,weatherlink.com 1.10,2013-01-28 10:37:00,
2013-01-28 05:52:00,71.4,63.0,30.27,ENE,65,3.0,5.0,75,0.00,,,0.00,weatherlink.com 1.10,2013-01-28 10:52:00,
2013-01-28 06:07:00,71.3,64.0,30.27,NE,51,3.0,6.0,77,0.00,,,0.00,weatherlink.com 1.10,2013-01-28 11:07:00,
2013-01-28 06:22:00,71.2,64.0,30.28,ENE,58,2.0,4.0,77,0.00,,,0.00,weatherlink.com 1.10,2013-01-28 11:22:00,
2013-01-28 06:37:00,71.2,63.0,30.28,ENE,75,1.0,6.0,76,0.00,,,0.00,weatherlink.com 1.10,2013-01-28 11:37:00,
2013-01-28 06:52:00,71.3,64.0,30.28,ENE,70,0.0,6.0,77,0.00,,,0.00,weatherlink.com 1.10,2013-01-28 11:52:00,
2013-01-28 07:07:00,71.5,64.0,30.29,ENE,77,4.0,7.0,76,0.00,,,0.00,weatherlink.com 1.10,2013-01-28 12:07:00,
2013-01-28 07:22:00,71.6,64.0,30.29,NE,44,2.0,6.0,77,0.00,,,0.00,weatherlink.com 1.10,2013-01-28 12:22:00,
2013-01-28 07:37:00,72.1,65.0,30.29,ENE,65,2.0,5.0,78,0.00,,,0.00,weatherlink.com 1.10,2013-01-28 12:37:00,
2013-01-28 07:52:00,73.1,65.0,30.30,ESE,113,0.0,6.0,76,0.00,,,0.00,weatherlink.com 1.10,2013-01-28 12:52:00,
2013-01-28 08:07:00,74.0,66.0,30.30,NE,54,3.0,6.0,76,0.00,,,0.00,weatherlink.com 1.10,2013-01-28 13:07:00,
2013-01-28 08:22:00,74.8,66.0,30.30,East,94,3.0,6.0,75,0.00,,,0.00,weatherlink.com 1.10,2013-01-28 13:22:00,
2013-01-28 08:37:00,75.1,66.0,30.30,NE,43,1.0,7.0,73,0.00,,,0.00,weatherlink.com 1.10,2013-01-28 13:37:00,
2013-01-28 08:52:00,75.9,67.0,30.31,NE,47,0.0,6.0,73,0.00,,,0.00,weatherlink.com 1.10,2013-01-28 13:52:00,
2013-01-28 09:07:00,76.1,66.0,30.31,East,90,4.0,6.0,72,0.00,,,0.00,weatherlink.com 1.10,2013-01-28 14:07:00,
2013-01-28 09:22:00,76.2,66.0,30.32,ENE,60,2.0,6.0,71,0.00,,,0.00,weatherlink.com 1.10,2013-01-28 14:22:00,
2013-01-28 09:37:00,76.6,67.0,30.32,NE,50,2.0,8.0,71,0.00,,,0.00,weatherlink.com 1.10,2013-01-28 14:37:00,
2013-01-28 09:53:00,76.9,66.0,30.33,ENE,68,2.0,8.0,70,0.00,,,0.00,weatherlink.com 1.10,2013-01-28 14:53:00,
2013-01-28 10:08:00,77.7,67.0,30.33,NE,45,1.0,5.0,70,0.00,,,0.00,weatherlink.com 1.10,2013-01-28 15:08:00,
2013-01-28 10:23:00,76.6,67.0,30.33,ENE,63,2.0,6.0,71,0.00,,,0.00,weatherlink.com 1.10,2013-01-28 15:23:00,
2013-01-28 10:38:00,77.2,66.0,30.33,NE,47,2.0,7.0,69,0.00,,,0.00,weatherlink.com 1.10,2013-01-28 15:38:00,
2013-01-28 10:53:00,78.6,66.0,30.33,NE,56,4.0,6.0,66,0.00,,,0.00,weatherlink.com 1.10,2013-01-28 15:53:00,
2013-01-28 11:08:00,78.4,67.0,30.33,ENE,61,2.0,7.0,67,0.00,,,0.00,weatherlink.com 1.10,2013-01-28 16:08:00,
2013-01-28 11:23:00,79.2,67.0,30.33,East,79,4.0,5.0,67,0.00,,,0.00,weatherlink.com 1.10,2013-01-28 16:23:00,
2013-01-28 11:38:00,78.8,67.0,30.32,ENE,63,3.0,8.0,68,0.00,,,0.00,weatherlink.com 1.10,2013-01-28 16:38:00,
2013-01-28 11:53:00,79.2,67.0,30.32,ENE,67,8.0,8.0,66,0.00,,,0.00,weatherlink.com 1.10,2013-01-28 16:53:00,
2013-01-28 12:08:00,79.1,67.0,30.31,NE,34,2.0,7.0,66,0.00,,,0.00,weatherlink.com 1.10,2013-01-28 17:08:00,
2013-01-28 12:23:00,79.8,68.0,30.31,ENE,58,2.0,6.0,67,0.00,,,0.00,weatherlink.com 1.10,2013-01-28 17:23:00,
2013-01-28 12:38:00,79.3,67.0,30.30,ESE,110,3.0,6.0,67,0.00,,,0.00,weatherlink.com 1.10,2013-01-28 17:38:00,
2013-01-28 12:53:00,79.6,68.0,30.29,ENE,60,5.0,7.0,67,0.00,,,0.00,weatherlink.com 1.10,2013-01-28 17:53:00,
2013-01-28 13:08:00,79.8,68.0,30.28,NE,53,2.0,4.0,67,0.00,,,0.00,weatherlink.com 1.10,2013-01-28 18:08:00,
2013-01-28 13:23:00,79.4,68.0,30.28,ENE,71,2.0,6.0,68,0.00,,,0.00,weatherlink.com 1.10,2013-01-28 18:23:00,
2013-01-28 13:38:00,79.8,68.0,30.27,NE,56,3.0,6.0,67,0.00,,,0.00,weatherlink.com 1.10,2013-01-28 18:38:00,
2013-01-28 13:53:00,79.5,66.0,30.27,NE,34,1.0,7.0,64,0.00,,,0.00,weatherlink.com 1.10,2013-01-28 18:53:00,
2013-01-28 14:08:00,79.2,66.0,30.26,NE,47,1.0,8.0,64,0.00,,,0.00,weatherlink.com 1.10,2013-01-28 19:08:00,
2013-01-28 14:23:00,79.3,67.0,30.25,NE,54,0.0,4.0,65,0.00,,,0.00,weatherlink.com 1.10,2013-01-28 19:23:00,
2013-01-28 14:38:00,78.9,67.0,30.25,ESE,122,4.0,5.0,66,0.00,,,0.00,weatherlink.com 1.10,2013-01-28 19:38:00,
2013-01-28 14:53:00,78.3,66.0,30.25,NE,47,3.0,7.0,67,0.00,,,0.00,weatherlink.com 1.10,2013-01-28 19:53:00,
2013-01-28 15:08:00,77.7,66.0,30.25,NE,56,2.0,5.0,67,0.00,,,0.00,weatherlink.com 1.10,2013-01-28 20:08:00,
2013-01-28 15:23:00,77.5,67.0,30.25,NNE,22,1.0,5.0,69,0.00,,,0.00,weatherlink.com 1.10,2013-01-28 20:23:00,
2013-01-28 15:38:00,77.0,66.0,30.24,NE,45,0.0,6.0,69,0.00,,,0.00,weatherlink.com 1.10,2013-01-28 20:38:00,
2013-01-28 15:53:00,77.1,66.0,30.24,ENE,60,3.0,7.0,69,0.00,,,0.00,weatherlink.com 1.10,2013-01-28 20:53:00,
2013-01-28 16:08:00,75.7,66.0,30.25,ENE,58,4.0,5.0,73,0.00,,,0.00,weatherlink.com 1.10,2013-01-28 21:08:00,
2013-01-28 16:23:00,75.6,66.0,30.25,NNE,16,0.0,4.0,73,0.00,,,0.00,weatherlink.com 1.10,2013-01-28 21:23:00,
2013-01-28 16:38:00,75.6,66.0,30.25,NE,53,1.0,7.0,72,0.00,,,0.00,weatherlink.com 1.10,2013-01-28 21:38:00,
2013-01-28 16:53:00,75.8,66.0,30.25,NE,34,2.0,3.0,72,0.00,,,0.00,weatherlink.com 1.10,2013-01-28 21:53:00,
2013-01-28 17:08:00,75.5,66.0,30.25,ENE,58,0.0,3.0,73,0.00,,,0.00,weatherlink.com 1.10,2013-01-28 22:08:00,
2013-01-28 17:23:00,75.1,66.0,30.25,NE,49,6.0,7.0,74,0.00,,,0.00,weatherlink.com 1.10,2013-01-28 22:23:00,
2013-01-28 17:38:00,74.7,66.0,30.25,ESE,106,2.0,5.0,75,0.00,,,0.00,weatherlink.com 1.10,2013-01-28 22:38:00,
2013-01-28 17:53:00,74.4,66.0,30.25,ENE,65,2.0,5.0,76,0.00,,,0.00,weatherlink.com 1.10,2013-01-28 22:53:00,
2013-01-28 18:08:00,74.2,67.0,30.25,ENE,67,4.0,4.0,77,0.00,,,0.00,weatherlink.com 1.10,2013-01-28 23:08:00,
2013-01-28 18:23:00,74.0,66.0,30.26,ENE,58,1.0,7.0,76,0.00,,,0.00,weatherlink.com 1.10,2013-01-28 23:23:00,
2013-01-28 18:38:00,73.9,66.0,30.26,NE,56,1.0,4.0,76,0.00,,,0.00,weatherlink.com 1.10,2013-01-28 23:38:00,
2013-01-28 18:53:00,73.8,66.0,30.26,NE,46,1.0,6.0,77,0.00,,,0.00,weatherlink.com 1.10,2013-01-28 23:53:00,
2013-01-28 19:08:00,73.7,66.0,30.26,NE,54,2.0,3.0,77,0.00,,,0.00,weatherlink.com 1.10,2013-01-29 00:08:00,
2013-01-28 19:23:00,73.7,66.0,30.26,North,350,0.0,4.0,77,0.00,,,0.00,weatherlink.com 1.10,2013-01-29 00:23:00,
2013-01-28 19:38:00,73.8,66.0,30.27,ENE,68,0.0,2.0,77,0.00,,,0.00,weatherlink.com 1.10,2013-01-29 00:38:00,
2013-01-28 19:53:00,73.6,66.0,30.27,NE,39,2.0,3.0,78,0.00,,,0.00,weatherlink.com 1.10,2013-01-29 00:53:00,
2013-01-28 20:08:00,73.5,66.0,30.27,NE,44,2.0,5.0,78,0.00,,,0.00,weatherlink.com 1.10,2013-01-29 01:08:00,
2013-01-28 20:23:00,73.5,67.0,30.27,ENE,68,1.0,5.0,79,0.00,,,0.00,weatherlink.com 1.10,2013-01-29 01:23:00,
2013-01-28 20:38:00,73.3,66.0,30.27,NE,44,1.0,3.0,79,0.00,,,0.00,weatherlink.com 1.10,2013-01-29 01:38:00,
2013-01-28 20:53:00,73.6,66.0,30.27,NE,45,1.0,5.0,78,0.00,,,0.00,weatherlink.com 1.10,2013-01-29 01:53:00,
2013-01-28 21:08:00,73.8,67.0,30.27,NE,39,3.0,4.0,78,0.00,,,0.00,weatherlink.com 1.10,2013-01-29 02:08:00,
2013-01-28 21:23:00,74.0,67.0,30.27,NNE,12,2.0,7.0,79,0.00,,,0.00,weatherlink.com 1.10,2013-01-29 02:23:00,
2013-01-28 21:38:00,74.0,68.0,30.27,East,86,2.0,7.0,80,0.00,,,0.00,weatherlink.com 1.10,2013-01-29 02:38:00,
2013-01-28 21:53:00,74.0,67.0,30.27,ENE,60,2.0,5.0,79,0.00,,,0.00,weatherlink.com 1.10,2013-01-29 02:53:00,
2013-01-28 22:08:00,73.9,68.0,30.27,ENE,63,7.0,7.0,81,0.00,,,0.00,weatherlink.com 1.10,2013-01-29 03:08:00,
2013-01-28 22:23:00,73.7,68.0,30.27,NNE,32,1.0,6.0,83,0.00,,,0.00,weatherlink.com 1.10,2013-01-29 03:23:00,
2013-01-28 22:38:00,73.4,68.0,30.27,NNE,22,3.0,6.0,83,0.00,,,0.00,weatherlink.com 1.10,2013-01-29 03:38:00,
2013-01-28 22:53:00,73.1,68.0,30.26,ENE,65,3.0,5.0,83,0.00,,,0.00,weatherlink.com 1.10,2013-01-29 03:53:00,
2013-01-28 23:08:00,73.1,68.0,30.26,NE,56,4.0,11.0,85,0.00,,,0.00,weatherlink.com 1.10,2013-01-29 04:08:00,
2013-01-28 23:23:00,73.1,68.0,30.26,ESE,111,4.0,7.0,85,0.00,,,0.00,weatherlink.com 1.10,2013-01-29 04:23:00,
2013-01-28 23:38:00,73.1,69.0,30.26,ENE,65,4.0,7.0,86,0.00,,,0.00,weatherlink.com 1.10,2013-01-29 04:38:00,
2013-01-28 23:53:00,73.0,69.0,30.26,NE,43,1.0,5.0,86,0.00,,,0.00,weatherlink.com 1.10,2013-01-29 04:53:00,